User: anonymous   Login
Location: Goheenville
(40.9070°N, 79.3720°W)
Time: 22:18:41
(UTC-04:00)
Language:

Meteor 2-10 Rocket - Orbit

View from above orbital plane
View from above orbital plane
View from above satellite
View from above satellite

Ground track
Ground track

The orbit data is extracted from the following two-line orbital elements,

1 14453U 83109B   16121.56530414  .00000040  00000-0  10741-4 0  9998
2 14453  81.1660 161.3928 0105168 176.7427 183.4461 14.24644991688773
Epoch (UTC): 30 April 2016 13:34:02
Eccentricity: 0.0105168
inclination: 81.1660°
perigee height: 734 km
apogee height: 885 km
right ascension of ascending node: 161.3928°
argument of perigee: 176.7427°
revolutions per day: 14.24644991
mean anomaly at epoch: 183.4461°
orbit number at epoch: 68877

The dashed part of the orbit path shows where the satellite is in the earth's shadow,  

DLR